星链-1963 (STARLINK-1963 )

导读 | 豆包AI

STARLINK-1963是美国太空探索技术公司(SpaceX)星链星座的一员,由美国于2021年2月4日发射升空。作为星链项目低轨互联网卫星群的组成部分,它旨在为全球提供高速低延迟互联网接入服务,推动太空互联网基础设施建设,目前已在近地轨道运行超5年,服务全球多个地区用户。

Basic Information
目录编号:
47564
目录名称:
STARLINK-1963
国际标识:
2021-009S
轨道中心:
EARTH
卫星名称:
星链-1963
卫星全名:
星链-1963 (STARLINK-1963 )
卫星状态:
已陨落 最后检测时间 2025-05-31
发射日期:
2021-02-04 UTC
国别 :
美国 (US)
星等 :
--
Orbit Information
数据来源 国际轨道数据
星历时间: 2025-05-31T17:49:34+0800
轨道信息已过期287天
半长轴: 6525.892km
偏心率: 0.0006117
轨道倾角: 53.022°
近地点辐角 310.107°
升交点赤经 152.763°
平近点角 204.100°
近地点: 143.765km
远地点: 151.749km
周期: 87.442分钟
每日圈数: 16.468082
Detailed Information
固有亮度:
5
最大亮度:
2.5
卫星平台:
Starlink V1.0
覆盖范围:
全球
运营商:
太空探索技术公司
运营商所在国:
美国
制造商(研发单位):
太空探索技术公司
制造商所在国:
美国
使用方式:
暂无
Satellite Introduction
星链(Starlink)计划是由太空探索技术公司(SpaceX)提出的一个巨型低轨卫星互联网星座项目,计划在2019年至2024年间在太空搭建由约1.2万颗卫星组成的“星链”网络,其中1584颗将部署在地球上空550千米处的近地轨道,并从2020年开始工作。该卫星仍在工作。